TimeMDT,TemperatureF,Dew PointF,Humidity,Sea Level PressureIn,VisibilityMPH,Wind Direction,Wind SpeedMPH,Gust SpeedMPH,PrecipitationIn,Events,Conditions,WindDirDegrees,DateUTC
12:15 AM,42.8,30.2,61,30.09,10.0,Calm,Calm,-,N/A,,Mostly Cloudy,0,2014-04-22 06:15:00
12:35 AM,39.2,32.0,75,30.09,10.0,WNW,4.6,-,N/A,,Overcast,290,2014-04-22 06:35:00
12:55 AM,41.0,32.0,70,30.07,10.0,ENE,8.1,-,N/A,,Overcast,60,2014-04-22 06:55:00
1:15 AM,41.0,30.2,65,30.06,10.0,Calm,Calm,-,N/A,,Overcast,0,2014-04-22 07:15:00
1:35 AM,41.0,30.2,65,30.07,10.0,WSW,4.6,-,N/A,,Overcast,250,2014-04-22 07:35:00
1:55 AM,41.0,30.2,65,30.06,10.0,WNW,3.5,-,N/A,,Overcast,300,2014-04-22 07:55:00
2:15 AM,41.0,32.0,70,30.07,10.0,Calm,Calm,-,N/A,,Overcast,0,2014-04-22 08:15:00
2:35 AM,42.8,30.2,61,30.06,10.0,Calm,Calm,-,N/A,,Overcast,0,2014-04-22 08:35:00
2:55 AM,42.8,30.2,61,30.06,10.0,ENE,3.5,-,N/A,Rain,Light Rain,70,2014-04-22 08:55:00
3:15 AM,42.8,30.2,61,30.05,10.0,ENE,5.8,-,N/A,,Mostly Cloudy,60,2014-04-22 09:15:00
3:35 AM,41.0,30.2,65,30.03,10.0,NE,4.6,-,N/A,,Scattered Clouds,50,2014-04-22 09:35:00
3:55 AM,41.0,30.2,65,30.02,10.0,NNE,3.5,-,N/A,,Mostly Cloudy,30,2014-04-22 09:55:00
4:15 AM,39.2,32.0,75,30.01,10.0,Calm,Calm,-,N/A,,Overcast,0,2014-04-22 10:15:00
4:35 AM,41.0,30.2,65,30.00,10.0,Calm,Calm,-,N/A,,Overcast,0,2014-04-22 10:35:00
4:55 AM,42.8,30.2,61,29.99,10.0,Calm,Calm,-,N/A,,Overcast,0,2014-04-22 10:55:00
5:15 AM,39.2,32.0,75,29.98,10.0,Calm,Calm,-,N/A,,Overcast,0,2014-04-22 11:15:00
5:35 AM,41.0,32.0,70,29.97,10.0,Calm,Calm,-,N/A,,Overcast,0,2014-04-22 11:35:00
5:55 AM,41.0,32.0,70,29.97,10.0,Calm,Calm,-,N/A,,Overcast,0,2014-04-22 11:55:00
6:15 AM,39.2,32.0,75,29.97,10.0,Calm,Calm,-,N/A,,Overcast,0,2014-04-22 12:15:00
6:35 AM,37.4,32.0,81,29.97,10.0,Calm,Calm,-,N/A,,Overcast,0,2014-04-22 12:35:00
6:55 AM,41.0,32.0,70,29.97,10.0,Calm,Calm,-,N/A,,Overcast,0,2014-04-22 12:55:00
7:15 AM,42.8,32.0,66,29.97,10.0,NW,3.5,-,N/A,,Mostly Cloudy,320,2014-04-22 13:15:00
7:35 AM,42.8,32.0,66,29.98,10.0,Calm,Calm,-,N/A,,Overcast,0,2014-04-22 13:35:00
7:55 AM,42.8,32.0,66,29.97,10.0,ENE,5.8,-,N/A,,Overcast,60,2014-04-22 13:55:00
8:15 AM,42.8,33.8,70,29.96,10.0,NNE,4.6,-,N/A,,Mostly Cloudy,30,2014-04-22 14:15:00
8:35 AM,44.6,32.0,61,29.95,10.0,NE,4.6,-,N/A,,Mostly Cloudy,40,2014-04-22 14:35:00
8:55 AM,44.6,33.8,66,29.95,10.0,Calm,Calm,-,N/A,,Overcast,0,2014-04-22 14:55:00
9:15 AM,46.4,32.0,57,29.95,10.0,SE,3.5,-,N/A,,Overcast,140,2014-04-22 15:15:00
9:35 AM,48.2,33.8,58,29.93,10.0,Calm,Calm,-,N/A,,Mostly Cloudy,0,2014-04-22 15:35:00
9:55 AM,51.8,33.8,50,29.92,10.0,East,4.6,-,N/A,,Scattered Clouds,100,2014-04-22 15:55:00
10:15 AM,53.6,32.0,44,29.91,10.0,East,9.2,-,N/A,,Scattered Clouds,100,2014-04-22 16:15:00
10:35 AM,53.6,32.0,44,29.90,10.0,ESE,4.6,-,N/A,,Mostly Cloudy,120,2014-04-22 16:35:00
10:55 AM,53.6,32.0,44,29.89,10.0,East,5.8,-,N/A,,Mostly Cloudy,80,2014-04-22 16:55:00
11:15 AM,55.4,32.0,41,29.87,10.0,East,9.2,-,N/A,,Mostly Cloudy,80,2014-04-22 17:15:00
11:35 AM,55.4,32.0,41,29.87,10.0,Calm,Calm,-,N/A,,Mostly Cloudy,0,2014-04-22 17:35:00
11:55 AM,59.0,32.0,36,29.85,10.0,SSW,4.6,-,N/A,,Scattered Clouds,200,2014-04-22 17:55:00
12:15 PM,59.0,32.0,36,29.85,10.0,South,5.8,16.1,N/A,,Scattered Clouds,190,2014-04-22 18:15:00
12:35 PM,59.0,32.0,36,29.83,10.0,SSW,9.2,-,N/A,,Scattered Clouds,200,2014-04-22 18:35:00
12:55 PM,59.0,30.2,34,29.81,10.0,SSW,19.6,28.8,N/A,,Mostly Cloudy,200,2014-04-22 18:55:00
1:15 PM,57.2,30.2,36,29.82,10.0,SSW,17.3,24.2,N/A,,Overcast,200,2014-04-22 19:15:00
1:35 PM,53.6,32.0,44,29.81,10.0,SW,23.0,31.1,N/A,,Light Drizzle,230,2014-04-22 19:35:00
1:55 PM,55.4,32.0,41,29.79,10.0,SW,13.8,21.9,N/A,,Overcast,230,2014-04-22 19:55:00
2:15 PM,55.4,32.0,41,29.79,10.0,SSW,13.8,23.0,N/A,,Mostly Cloudy,210,2014-04-22 20:15:00
2:35 PM,57.2,30.2,36,29.77,10.0,SSW,15.0,20.7,N/A,,Clear,200,2014-04-22 20:35:00
2:55 PM,59.0,30.2,34,29.77,10.0,SSW,12.7,19.6,N/A,,Scattered Clouds,200,2014-04-22 20:55:00
3:15 PM,59.0,30.2,34,29.75,10.0,SSW,12.7,19.6,N/A,,Mostly Cloudy,210,2014-04-22 21:15:00
3:35 PM,59.0,28.4,31,29.74,10.0,South,9.2,19.6,N/A,,Overcast,190,2014-04-22 21:35:00
3:55 PM,59.0,28.4,31,29.72,10.0,SSW,15.0,20.7,N/A,,Mostly Cloudy,210,2014-04-22 21:55:00
4:15 PM,59.0,28.4,31,29.71,10.0,SSW,17.3,-,N/A,,Scattered Clouds,200,2014-04-22 22:15:00
4:35 PM,59.0,26.6,29,29.71,10.0,SSW,18.4,21.9,N/A,,Mostly Cloudy,200,2014-04-22 22:35:00
4:55 PM,59.0,24.8,27,29.69,10.0,South,17.3,29.9,N/A,,Mostly Cloudy,190,2014-04-22 22:55:00
5:15 PM,59.0,24.8,27,29.66,10.0,South,24.2,34.5,N/A,,Scattered Clouds,170,2014-04-22 23:15:00
5:35 PM,59.0,23.0,25,29.64,10.0,South,20.7,26.5,N/A,,Clear,170,2014-04-22 23:35:00
5:55 PM,59.0,24.8,27,29.63,10.0,SSE,13.8,21.9,N/A,,Mostly Cloudy,160,2014-04-22 23:55:00
6:15 PM,59.0,24.8,27,29.62,10.0,SSE,17.3,29.9,N/A,,Mostly Cloudy,160,2014-04-23 00:15:00
6:35 PM,59.0,26.6,29,29.62,10.0,SE,20.7,26.5,N/A,,Mostly Cloudy,140,2014-04-23 00:35:00
6:55 PM,55.4,26.6,33,29.60,10.0,SSE,27.6,32.2,N/A,,Mostly Cloudy,150,2014-04-23 00:55:00
7:15 PM,55.4,26.6,33,29.60,10.0,SSE,12.7,18.4,N/A,,Overcast,160,2014-04-23 01:15:00
7:35 PM,53.6,28.4,38,29.60,10.0,SSE,11.5,-,N/A,,Overcast,150,2014-04-23 01:35:00
8:15 PM,51.8,32.0,47,29.63,10.0,South,26.5,42.6,N/A,,Overcast,180,2014-04-23 02:15:00
8:35 PM,50.0,32.0,50,29.65,10.0,SSW,26.5,44.9,N/A,,Overcast,200,2014-04-23 02:35:00
8:55 PM,46.4,33.8,62,29.66,10.0,SSW,26.5,35.7,N/A,Rain,Light Rain,210,2014-04-23 02:55:00
9:15 PM,46.4,33.8,62,29.66,10.0,SW,19.6,29.9,N/A,,Overcast,220,2014-04-23 03:15:00
9:35 PM,44.6,35.6,71,29.67,10.0,South,19.6,29.9,N/A,,Mostly Cloudy,190,2014-04-23 03:35:00
9:55 PM,44.6,33.8,66,29.66,10.0,SSW,13.8,26.5,N/A,,Mostly Cloudy,200,2014-04-23 03:55:00
10:15 PM,44.6,35.6,71,29.66,10.0,SSW,16.1,20.7,N/A,,Overcast,210,2014-04-23 04:15:00
10:35 PM,41.0,32.0,70,29.69,10.0,West,19.6,26.5,N/A,,Overcast,280,2014-04-23 04:35:00
10:55 PM,37.4,30.2,75,29.69,10.0,WNW,16.1,21.9,N/A,,Overcast,290,2014-04-23 04:55:00
11:15 PM,37.4,28.4,70,29.71,10.0,WNW,21.9,28.8,N/A,,Overcast,300,2014-04-23 05:15:00
11:35 PM,37.4,30.2,75,29.71,10.0,WNW,16.1,24.2,N/A,,Overcast,300,2014-04-23 05:35:00
11:55 PM,35.6,28.4,75,29.72,10.0,NW,15.0,-,N/A,,Overcast,310,2014-04-23 05:55:00